Location: Newark
(43.4306°N, 0.3089°E)
Time: 22:49:05
(UTC+00:00)

Explorer 11/Cluster Stage 4 - All Passes

Search period start: 21 August 2019 00:00
Search period end: 31 August 2019 00:00
Orbit: 467 x 1260 km, 28.8° (Epoch: 20 August)

Date Brightness Start Highest point End Pass type
(mag) Time Alt. Az. Time Alt. Az. Time Alt. Az.
21 Aug - 10:00:41 10° S 10:04:15 13° SSE 10:07:48 10° SE daylight
21 Aug - 11:46:16 10° SW 11:52:22 23° S 11:58:07 10° ESE daylight
21 Aug - 13:34:27 10° WSW 13:40:36 25° S 13:46:08 10° SE daylight
21 Aug - 15:24:16 10° WSW 15:28:30 16° SSW 15:32:20 10° SSE daylight
22 Aug - 09:49:02 10° S 09:53:18 15° SSE 09:57:33 10° SE daylight
22 Aug - 11:35:07 10° SW 11:41:26 25° S 11:47:28 10° ESE daylight
22 Aug - 13:23:26 10° WSW 13:29:43 25° S 13:35:25 10° SE daylight
22 Aug - 15:13:28 10° WSW 15:17:37 16° SSW 15:21:26 10° SSE daylight
23 Aug - 09:37:35 10° SSW 09:42:20 17° SSE 09:47:07 10° ESE daylight
23 Aug - 11:24:01 10° SW 11:30:31 26° S 11:36:46 10° ESE daylight
23 Aug - 13:12:28 10° WSW 13:18:49 25° S 13:24:38 10° SE daylight
23 Aug - 15:02:43 10° SW 15:06:42 15° SSW 15:10:25 10° S daylight
24 Aug - 09:26:18 10° SSW 09:31:22 18° SSE 09:36:32 10° ESE daylight
24 Aug - 11:12:59 10° SW 11:19:34 27° S 11:26:00 10° ESE daylight
24 Aug - 13:01:31 10° WSW 13:07:53 25° S 13:13:48 10° SE daylight
24 Aug - 14:52:03 10° SW 14:55:47 14° SSW 14:59:18 10° S daylight
25 Aug - 09:15:07 10° SSW 09:20:24 20° SSE 09:25:52 10° ESE daylight
25 Aug - 11:02:01 10° SW 11:08:37 28° S 11:15:11 10° ESE daylight
25 Aug - 12:50:38 10° WSW 12:56:56 25° SSW 13:02:55 10° SE daylight
25 Aug - 14:41:30 10° SW 14:44:51 13° SSW 14:48:02 10° S daylight
26 Aug - 09:04:03 10° SSW 09:09:26 21° SSE 09:15:07 10° ESE daylight
26 Aug - 10:51:06 10° SW 10:57:40 28° S 11:04:19 10° ESE daylight
26 Aug - 12:39:48 10° WSW 12:45:59 24° SSW 12:51:57 10° SE daylight
26 Aug - 14:31:10 10° SW 14:33:53 12° SSW 14:36:31 10° S daylight
27 Aug - 08:53:03 10° SSW 08:58:30 22° SSE 09:04:19 10° ESE daylight
27 Aug - 10:40:14 10° SW 10:46:43 28° S 10:53:24 10° SE daylight
27 Aug - 12:29:00 10° WSW 12:35:02 23° SSW 12:40:56 10° SSE daylight
27 Aug - 14:21:15 10° SW 14:22:55 11° SSW 14:24:34 10° SSW daylight
28 Aug - 06:59:02 10° SSE 06:59:52 10° SSE 07:00:41 10° SE daylight
28 Aug - 08:42:07 10° SSW 08:47:33 22° SSE 08:53:26 10° ESE daylight
28 Aug - 10:29:25 10° SW 10:35:47 28° S 10:42:26 10° SE daylight
28 Aug - 12:18:17 10° WSW 12:24:04 21° SSW 12:29:50 10° SSE daylight
29 Aug - 06:47:07 10° SSE 06:48:56 11° SSE 06:50:50 10° SE daylight
29 Aug - 08:31:16 10° SW 08:36:38 23° SSE 08:42:32 10° ESE daylight
29 Aug - 10:18:39 10° SW 10:24:51 27° S 10:31:25 10° SE daylight
29 Aug - 12:07:37 10° WSW 12:13:07 20° SSW 12:18:38 10° SSE daylight
30 Aug - 06:35:46 10° S 06:38:02 12° SSE 06:40:26 10° SE daylight
30 Aug - 08:20:29 10° SW 08:25:44 23° SSE 08:31:35 10° ESE daylight
30 Aug - 10:07:57 10° WSW 10:13:55 26° S 10:20:21 10° SE daylight
30 Aug - 11:57:03 10° WSW 12:02:09 18° SSW 12:07:20 10° SSE daylight
